Погода в Селе Дормидонтовка

Россия / Хабаровский край     47°42′39″N   134°54′58″E
темп.,
°C
ветер,
м/с
пор.,
м/с
влажн.,
%
обл.,
%
осадки,
мм/ч
давл.,
гПа
погр.,
м
26 февраля, пт
пт2601:00−24юз229337 0.0 102620
04:00−25юз229219 0.0 102620
07:00−25юз23962 0.0 102721
10:00−21юз359239 0.0 1027257
13:00−17зюз358997 0.0 1028396
16:00−16з358981 0.0 1028403
19:00−20зюз229521 0.0 103120
22:00−21ююз229711 0.0 103320
27 февраля, сб
сб2701:00−21ююз22940 0.0 103520
04:00−22ююз12920 0.0 103520
07:00−22ююв22900 0.0 103620
10:00−17ююв248717 0.0 1035177
13:00−10ююв358067 0.0 1033460
16:00−7ююв477883 0.0 1028559
19:00−9ююв3883100 0.0 1025199
22:00−9ю2386100 0.0 102355
28 февраля, вс
вс2801:00−8ююз0183100 0.0 102029
04:00−6ююз21390100 0.2 1019597
07:00−3юз41392100 0.3 1018729
10:00−2зюз61196100 2.2 1018725
13:00−4з6985100 0.3 1020709
16:00−5з61083100 0.3 1021925
19:00−10з51279100 0.0 1023520
22:00−13з41083100 0.0 1026282
1 марта, пн
пн101:00−17зюз478997 0.0 1027120
04:00−21зюз449249 0.0 103072
07:00−23зюз47920 0.0 1032117
10:00−20зюз59850 0.0 1033331
13:00−15з58740 0.0 1033632
16:00−14з57680 0.0 1033986
19:00−19зюз34800 0.0 103323
22:00−20юз34860 0.0 103452
2 марта, вт
вт201:00−21юз348882 0.0 103441
04:00−22зюз229591 0.0 103420
07:00−26зсз119760 0.0 103420
10:00−20зсз117830 0.0 103372
13:00−17сз35660 0.0 1031535
16:00−16сз34780 0.0 1029425
19:00−21з23890 0.0 103020
22:00−24ююз12830 0.0 103120